SCP
0 0 0 0 0 0 0 0 0 0 0 0 0 0 0 0 0 0 0 0 0 0 0 0 0 0 0 0 0 0 0 0 0 0 0 0 0 0 0 0 0 0 0
0 0 0 0 0 0 0 0 0 0 0 0 0 0 0 0 0 0 0 0 0 0 0 0 0 0 0 0 0 0 0 0 0 0 0 0 0 0 0 0 0 0 0
0 0 0 0 0 0 0 0 0 0 0 0 0 0 0 0 0 0 0 0 0 0 0 0 0 0 0 0 0 0 0 0 0 0 0 0 0 0 0 0 0 0 0
0 0 0 0 0 0 0 0 0 0 0 0 0 0 0 0 0 0 0 0 0 0 0 0 0 0 0 0 0 0 0 0 0 0 0 0 0 0 0 0 0 0 0
0 0 0 0 0 0 0 0 0 0 0 0 0 0 0 0 0 0 0 0 0 0 0 0 0 0 0 0 0 0 0 0 0 0 0 0 0 0 0 0 0 0 0
0 0 0 0 0 0 0 0 0 0 0 0 0 0 0 0 0 0 0 0 0 0 0 0 0 0 0 0 0 0 0 0 0 0 0 0 0 0 0 0 0 0 0
0 0 0 0 0 0 0 0 0 0 0 0 0 0 0 0 0 0 0 0 0 0 0 0 0 0 0 0 0 0 0 0 0 0 0 0 0 0 0 0 0 0 0
0 0 0 0 0 0 0 0 0 0 0 0 0 0 0 0 0 0 0 0 0 0 0 0 0 0 0 0 0 0 0 0 0 0 0 0 0 0 0 0 0 0 0
0 0 0 0 0 0 0 0 0 0 0 0 0 0 0 0 0 0 0 0 0 0 0 0 0 0 0 0 0 0 0 0 0 0 0 0 0 0 0 0 0 0 0
0 0 0 0 0 0 0 0 0 0 0 0 0 0 0 0 0 0 0 0 0 0 0 0 0 0 0 0 0 0 0 0 0 0 0 0 0 0 0 0 0 0 0
0 0 0 0 0 0 0 0 0 0 0 0 0 0 0 0 0 0 0 0 0 0 0 0 0 0 0 0 0 0 0 0 0 0 0 0 0 0 0 0 0 0 0
0 0 0 0 0 0 0 0 0 0 0 0 0 0 0 0 0 0 0 0 0 0 0 0 0 0 0 0 1 1 1 0 0 0 1 1 0 0 0 0 0 0 0
0 0 0 0 0 0 0 0 0 0 0 0 0 0 0 0 0 0 0 0 0 0 0 0 0 0 0 1 1 1 1 1 1 1 1 1 1 0 0 0 0 0 0
0 0 0 0 0 0 0 0 0 0 0 0 0 0 0 0 0 0 0 0 0 0 0 0 0 0 0 0 1 1 1 1 1 1 1 1 1 1 0 0 0 0 0
0 0 0 0 0 0 0 0 0 0 0 0 0 0 0 0 0 0 0 0 0 0 0 0 0 0 0 0 0 1 1 1 0 0 0 0 0 0 0 0 0 0 0
0 0 0 0 0 0 0 0 0 0 0 0 0 0 0 0 0 0 0 0 0 0 0 0 0 0 0 0 0 0 0 0 0 0 0 0 0 0 0 0 0 0 0
0 0 0 0 0 0 0 0 0 0 0 0 0 0 0 0 0 0 0 0 0 0 0 0 0 0 0 0 0 0 0 0 0 0 0 0 0 0 0 0 0 0 0
0 0 0 0 0 0 0 0 0 0 0 0 0 0 0 0 0 0 0 0 0 0 0 0 0 0 0 0 0 0 0 0 0 0 0 0 0 0 0 0 0 0 0
0 0 0 0 0 0 0 0 0 1 0 0 0 0 0 0 0 0 0 0 0 0 0 0 0 0 0 0 0 0 0 0 0 0 0 0 0 0 0 0 0 0 0
0 0 0 0 0 0 0 0 0 0 0 0 0 0 0 0 0 0 0 0 0 0 0 0 0 0 0 0 0 0 0 0 0 0 0 0 0 0 0 0 0 0 0
0 0 0 0 0 0 0 0 0 0 0 0 0 0 0 0 0 0 0 0 0 0 0 0 0 0 0 0 0 0 0 0 0 0 0 0 0 0 0 0 0 0 0
0 0 0 0 0 0 0 0 0 0 0 0 0 0 0 0 0 0 0 0 0 0 0 0 0 0 0 0 0 0 0 0 0 0 0 0 0 0 0 0 0 0 0
0 0 0 0 0 0 0 0 0 0 0 0 0 0 0 0 0 0 0 0 0 0 0 0 0 0 0 0 0 0 0 0 0 0 0 0 0 0 0 0 0 0 0
0 0 0 0 0 0 0 0 0 0 0 0 0 0 0 0 0 0 0 0 0 0 0 0 0 0 0 0 0 0 0 0 0 0 0 0 0 0 0 0 0 0 0
0 0 0 0 0 0 0 0 0 0 0 0 0 0 0 0 0 0 0 0 0 0 0 0 0 0 0 0 0 0 0 0 0 0 0 0 0 0 0 0 0 0 0
0 0 0 0 0 0 0 0 0 0 0 0 0 0 0 0 0 0 0 0 0 0 0 0 0 0 0 0 0 0 0 0 0 0 0 0 0 0 0 0 0 0 0
Wind_Speed
6 5 6 7 7 6 6 6 6 5 4 3 2 2 2 1 1 2 2 3 3 3 3 2 1 1 1 1 1 0 0 1 0 1 2 3 2 1 2 2 2 3 4
5 6 6 7 7 7 7 6 6 5 5 4 3 2 2 1 1 1 1 2 3 3 3 3 2 1 1 1 1 1 0 0 0 1 1 3 3 2 1 1 2 2 2
10 8 8 8 7 8 8 8 7 6 5 4 2 2 1 1 0 1 1 2 2 2 2 3 2 2 2 1 2 1 1 1 0 1 1 1 2 3 2 2 1 2 2
9 9 9 9 9 9 8 7 6 6 5 5 4 4 3 3 3 2 1 1 2 2 2 3 3 2 2 2 3 2 2 2 1 1 1 1 2 1 2 3 2 2 2
10 10 11 11 10 8 7 6 5 5 5 5 6 5 3 3 2 1 2 2 1 2 2 2 2 3 2 3 3 2 2 2 2 1 1 1 1 1 1 3 3 3 2
9 9 8 7 7 6 6 6 6 5 5 5 5 5 5 4 2 2 2 2 1 1 2 2 3 3 3 3 3 3 3 3 2 2 2 2 1 2 2 3 3 3 3
7 7 7 8 8 8 8 7 7 6 6 6 6 5 5 5 5 4 3 3 2 2 3 3 3 3 4 4 3 3 3 3 3 3 2 2 2 2 2 2 2 2 3
6 8 8 8 8 8 8 7 7 7 6 6 6 5 5 4 3 4 4 3 3 3 3 3 3 3 4 4 3 3 3 3 3 4 3 2 2 2 3 2 2 1 2
5 6 6 7 7 7 8 8 8 6 6 6 5 5 5 5 4 4 4 3 3 3 3 3 3 3 3 3 3 2 3 2 3 3 3 3 2 2 3 3 3 2 2
3 4 5 5 6 6 6 6 6 7 7 6 6 6 5 5 5 4 4 4 4 3 3 3 3 3 3 3 3 3 3 3 3 3 3 3 3 2 3 3 3 3 3
4 4 4 4 4 4 5 5 6 5 5 5 5 5 4 5 4 4 5 4 4 4 4 4 3 3 3 3 4 4 4 4 4 4 4 4 3 3 3 3 3 3 3
3 4 3 4 4 5 5 5 5 5 4 4 4 5 4 4 4 4 4 4 4 4 4 4 3 4 4 3 4 5 5 5 6 5 4 5 4 4 3 3 3 3 4
3 3 3 3 4 4 4 4 4 4 4 4 4 3 3 3 4 4 4 3 4 4 4 4 4 4 4 4 4 4 5 5 6 5 5 5 4 4 3 3 4 3 3
2 2 2 2 2 3 4 4 3 3 3 3 3 3 3 3 4 3 3 3 3 4 4 4 4 4 4 4 4 4 4 5 5 5 5 5 5 5 5 5 5 4 3
2 2 2 1 2 2 2 2 2 2 3 3 3 3 2 2 2 3 3 2 3 3 3 3 3 3 3 3 3 4 4 4 4 5 5 5 6 7 6 5 4 4 3
2 2 2 1 1 2 3 2 2 1 2 2 2 2 1 1 2 2 2 2 2 2 2 2 3 3 3 3 4 4 3 3 4 4 5 5 5 7 7 8 7 6 5
2 2 3 3 3 2 2 3 2 1 1 1 1 2 2 2 2 2 1 2 3 2 2 3 3 4 5 5 5 4 3 3 4 4 4 4 4 5 4 5 6 6 8
1 1 1 1 1 1 1 2 2 2 1 1 2 2 2 2 2 1 2 2 2 3 3 4 4 4 5 5 5 4 4 4 4 4 4 4 4 4 4 4 3 4 5
1 1 1 1 1 0 1 2 1 1 1 1 2 2 2 2 2 2 3 2 2 3 4 3 4 5 5 4 4 4 2 3 4 4 3 3 4 4 4 4 4 4 4
1 1 1 2 2 1 2 2 1 1 1 2 2 2 2 2 3 3 3 2 2 4 4 4 4 5 5 4 5 4 3 3 4 3 3 4 4 4 4 4 5 5 5
1 2 3 2 1 1 2 2 1 1 2 2 2 2 2 2 2 2 1 2 2 3 4 4 4 4 4 4 4 4 3 4 4 4 3 3 5 5 5 5 5 6 4
3 3 3 2 2 2 2 1 1 2 1 1 1 2 1 2 1 1 2 2 2 3 3 3 4 3 3 3 4 5 6 5 4 4 4 4 5 6 5 4 5 5 3
2 2 2 2 2 2 1 0 2 2 1 1 2 2 2 2 2 1 2 2 2 2 3 2 3 3 2 3 4 5 6 6 4 4 5 5 5 5 4 5 5 4 3
1 1 2 2 1 1 1 1 2 2 1 1 2 2 2 3 2 2 2 2 2 2 2 3 3 3 3 2 2 2 3 4 3 3 3 3 4 3 3 2 3 3 3
0 1 2 1 1 1 1 2 2 1 1 2 2 2 2 2 3 2 2 3 3 3 3 3 3 3 4 4 4 3 3 3 3 2 1 0 1 1 1 1 1 1 2
1 1 0 0 1 1 2 2 2 1 1 2 3 2 2 2 2 2 3 3 3 4 4 4 4 4 5 6 5 5 5 4 3 2 1 2 2 3 2 2 2 2 2
Wind_Direction
206 191 186 182 173 176 183 185 182 178 162 156 164 172 212 225 231 230 230 224 216 203 191 219 227 199 198 242 244 207 296 328 343 9 336 321 297 272 253 258 251 246 243
192 193 189 186 181 182 187 189 190 182 180 180 170 174 175 197 214 242 248 228 212 207 209 205 212 206 194 255 252 183 147 312 84 103 23 339 335 329 306 284 260 267 258
197 194 194 194 187 187 190 193 192 189 188 177 147 127 97 56 20 241 242 237 217 215 219 205 197 201 199 228 239 201 168 241 280 155 147 152 280 308 313 299 299 298 274
194 192 194 192 196 196 190 188 187 186 186 172 169 173 182 200 216 216 229 249 224 216 211 206 196 200 207 228 238 206 192 191 228 247 208 204 194 234 311 313 306 302 289
193 194 197 195 196 191 186 184 181 186 184 179 180 182 196 208 212 209 225 245 249 236 226 211 196 202 215 229 232 211 194 197 197 203 197 199 199 208 220 291 314 315 291
191 192 191 183 186 181 180 175 179 192 186 181 182 188 198 199 196 213 222 235 239 241 232 212 206 212 221 229 229 218 200 205 201 198 189 189 196 205 202 243 277 291 291
180 179 174 179 183 181 183 180 182 196 192 189 196 199 203 200 206 214 219 223 233 239 237 221 208 215 227 232 227 216 210 205 206 211 208 211 217 202 194 212 251 270 288
179 182 181 182 185 183 183 183 190 201 198 197 204 204 202 202 215 218 215 217 224 235 234 224 220 225 230 237 224 221 218 205 210 223 213 215 222 207 205 204 203 263 296
180 181 175 174 180 183 187 187 189 199 207 207 203 208 209 211 216 217 218 225 229 236 233 227 228 227 229 230 216 225 231 213 216 226 225 221 222 213 220 212 196 199 255
156 165 170 176 178 184 185 184 183 196 208 211 209 217 214 218 218 213 225 229 229 230 229 234 235 233 230 225 215 223 229 219 230 228 230 239 233 221 217 215 209 205 208
166 168 175 174 167 169 177 186 192 196 197 206 211 218 216 216 214 218 228 230 231 224 224 228 232 234 233 225 216 227 227 226 237 236 229 242 243 237 231 219 211 211 206
153 153 154 149 153 162 169 183 190 195 201 199 199 210 213 207 213 226 232 227 228 227 224 221 226 232 233 227 225 234 232 229 238 241 232 241 239 235 230 218 221 219 213
118 122 130 150 168 175 178 182 186 194 195 188 196 206 211 210 222 235 239 234 232 232 228 221 228 238 241 236 233 233 237 237 241 240 234 237 232 242 235 225 228 227 222
114 115 139 155 168 178 178 179 184 184 177 173 183 203 219 222 229 238 241 239 239 237 233 230 232 235 240 241 238 231 237 242 247 246 240 237 231 238 241 235 231 222 213
115 146 168 173 161 160 165 161 172 171 165 171 191 221 236 237 234 236 243 242 238 241 233 225 238 242 240 245 240 235 240 246 254 254 246 241 236 232 231 233 224 212 209
183 187 165 170 178 181 183 171 181 177 149 169 209 232 231 233 239 244 246 240 237 236 227 230 237 242 246 256 245 234 247 250 254 260 258 252 248 248 238 233 222 206 207
201 199 193 195 205 207 190 185 186 160 163 194 224 228 221 239 248 251 253 245 242 233 237 243 240 248 254 255 255 239 227 239 249 255 262 264 258 240 238 240 237 231 226
203 236 234 215 217 193 169 163 160 152 163 219 243 245 226 237 246 243 250 261 254 241 242 246 247 253 264 260 255 245 225 234 244 246 249 257 266 254 233 231 232 233 231
193 211 211 199 176 135 131 128 129 136 149 238 252 255 242 244 249 245 248 249 249 247 243 251 253 254 266 259 247 226 228 246 257 257 259 260 263 261 232 218 226 235 242
85 83 65 60 69 38 87 103 102 102 243 256 261 260 250 244 255 255 253 250 250 252 253 254 251 251 258 259 245 223 221 246 263 274 271 263 265 267 225 218 222 232 237
70 83 85 75 43 60 98 99 77 275 271 279 285 287 269 256 258 261 256 259 264 269 263 262 259 253 256 260 249 230 223 235 252 263 269 273 270 261 243 227 227 230 223
58 72 80 55 22 39 91 79 304 288 300 291 288 294 295 286 283 264 268 263 259 272 275 272 279 270 263 258 258 244 236 236 241 254 261 269 268 254 245 234 234 222 202
100 89 95 61 25 27 76 61 303 320 330 334 317 317 323 318 305 283 284 291 281 269 276 275 276 282 276 270 263 258 253 244 242 255 263 266 263 249 238 232 216 198 189
128 116 107 86 16 349 1 280 298 328 3 343 323 323 324 323 325 313 286 275 276 278 279 277 279 283 276 272 270 265 261 258 256 267 272 264 250 242 236 215 202 200 198
131 129 137 147 278 333 341 317 309 339 352 325 318 318 314 308 316 316 298 278 267 261 264 270 272 278 279 272 258 251 256 253 250 243 257 267 245 238 241 240 221 209 199
144 150 170 211 284 329 328 314 307 316 344 320 310 301 296 300 300 298 310 303 271 293 278 268 271 274 268 280 281 268 264 256 228 201 230 235 236 239 233 229 233 225 220